This demonstration page uses our WeatherBlox Daily Observations layout. Learn more.

Left ArrowRight Arrow

53.62937, 11.41316

Hourly Observations for April 20, 2015

Temp ( °F °C ) Dew Point ( °F °C ) Humidity (%) Winds ( mph kmh ) Pressure ( in mb ) Visibility ( mi km ) Precip ( " mm )
6:20 am 06:20 Mostly Sunny 32 0 32 0 100 100 W 2 4 30.24 1024 7 11 N/A
6:50 am 06:50 Mostly Sunny 36 2 34 1 93 93 WSW 6 9 30.24 1024 7 11 N/A
7:20 am 07:20 Mostly Sunny 37 3 34 1 87 87 WSW 7 11 30.24 1024 7 11 N/A
7:50 am 07:50 Mostly Sunny 41 5 37 3 87 87 WSW 7 11 30.24 1024 7 11 N/A
8:20 am 08:20 Mostly Sunny 45 7 37 3 76 76 W 6 9 30.24 1024 7 11 N/A
8:50 am 08:50 Mostly Sunny 46 8 37 3 71 71 NW 7 11 30.27 1025 7 11 N/A
9:20 am 09:20 Mostly Sunny 50 10 39 4 67 67 NNW 12 19 30.27 1025 7 11 N/A
9:50 am 09:50 Mostly Sunny 52 11 39 4 62 62 NNW 10 17 30.27 1025 7 11 N/A
10:20 am 10:20 Mostly Sunny 54 12 37 3 54 54 NNW 9 15 30.27 1025 7 11 N/A
10:50 am 10:50 Mostly Sunny 54 12 39 4 58 58 NNW 9 15 30.27 1025 7 11 N/A
11:20 am 11:20 Mostly Sunny 57 14 41 5 55 55 NNW 9 15 30.27 1025 7 11 N/A
11:50 am 11:50 Mostly Sunny 57 14 39 4 51 51 NW 10 17 30.27 1025 7 11 N/A
12:20 pm 12:20 Mostly Sunny 57 14 37 3 48 48 NNW 10 17 30.30 1026 7 11 N/A
12:50 pm 12:50 Mostly Sunny 59 15 39 4 48 48 NW 9 15 30.30 1026 7 11 N/A
1:20 pm 13:20 Mostly Sunny 61 16 41 5 48 48 NNW 10 17 30.30 1026 7 11 N/A
1:50 pm 13:50 Mostly Sunny 61 16 34 1 36 36 N 12 19 30.30 1026 7 11 N/A
2:20 pm 14:20 Mostly Sunny 61 16 32 0 34 34 NNW 10 17 30.30 1026 7 11 N/A
2:50 pm 14:50 Mostly Sunny 61 16 34 1 36 36 N 12 19 30.30 1026 7 11 N/A
3:20 pm 15:20 Mostly Sunny 61 16 34 1 36 36 N 12 19 30.30 1026 7 11 N/A
3:50 pm 15:50 Mostly Sunny 61 16 34 1 36 36 N 10 17 30.30 1026 7 11 N/A
4:20 pm 16:20 Mostly Sunny 61 16 32 0 34 34 N 10 17 30.30 1026 7 11 N/A
4:50 pm 16:50 Mostly Sunny 61 16 36 2 39 39 N 12 19 30.30 1026 7 11 N/A
5:20 pm 17:20 Mostly Sunny 61 16 34 1 36 36 NNE 12 19 30.30 1026 7 11 N/A
5:50 pm 17:50 Mostly Sunny 59 15 34 1 39 39 NNE 8 13 30.30 1026 7 11 N/A
6:20 pm 18:20 Mostly Sunny 59 15 36 2 42 42 NNE 8 13 30.30 1026 7 11 N/A
6:50 pm 18:50 Mostly Sunny 57 14 36 2 44 44 N 8 13 30.30 1026 7 11 N/A

Powered by AerisWeather